Tracking 31027 objects as of 18-Jul-2025
HD Live streaming from Space Station
objects crossing your sky now

COSMOS 839 DEB *

Track COSMOS 839 DEB * now!
10-day predictions


NORAD ID: 18689
Int'l Code: 1976-067BR
Perigee: 1,113.3 km
Apogee: 2,671.6 km
Inclination: 65.8 °
Period: 124.6 minutes
Semi major axis: 8263 km
RCS: 0.0093 m2 (small)
Launch date: July 8, 1976
Source: Commonwealth of Independent States (former USSR) (CIS)
Launch site: PLESETSK MISSILE AND SPACE COMPLEX (PKMTR)

Note: This is SATELLITE DEBRIS
Your satellite tracking list
Your tracking list is empty




NASA's NSSDC Master Catalog

Two Line Element Set (TLE):
1 18689U 76067BR  25198.23150080 -.00000175  00000-0 -91673-3 0  9996
2 18689  65.8175 116.2857 0942891 275.4754 254.9835 11.55741538353741
Source of the keplerian elements: AFSPC